Melbourne, FL

3:03 PM EDT on September 28, 2016 (GMT -0400)
Melbourne International

Weather History for KMLB - September, 2013

Change the Weather History Date:

Monday, September 30, 2013

  Actual Average Record
Temperature  
Mean Temperature 77 °F 79 °F  
Max Temperature 86 °F 87 °F 93 °F (1980)
Min Temperature 68 °F 72 °F 62 °F (1963)
Degree Days  
Heating Degree Days 0 0  
Month to date heating degree days 0 0  
Since 1 July heating degree days 0 0  
Cooling Degree Days 12 14  
Month to date cooling degree days 497 466  
Year to date cooling degree days 2946 2692  
Growing Degree Days 27 (Base 50)    
Moisture  
Dew Point 69 °F    
Average Humidity 78    
Maximum Humidity 100    
Minimum Humidity 55    
Precipitation  
Precipitation 0.00 in 0.25 in 2.14 in (1960)
Month to date precipitation 4.54 7.64  
Year to date precipitation 35.73 41.49  
Sea Level Pressure  
Sea Level Pressure 29.97 in    
Wind  
Wind Speed 6 mph (ENE)    
Max Wind Speed 13 mph    
Max Gust Speed 16 mph    
Visibility 10 miles    
Events      
T = Trace of Precipitation, MM = Missing Value Source: NWS Daily Summary

Daily Weather History Graph

Daily Weather History Graph

Search for Another Location

Airport or City:

Trip Planner

Search our weather history database for the weather conditions in past years. The results will help you decide how hot, cold, wet, or windy it might be!

Date:

Astronomy

Sep. 30, 2013 Rise Set
Actual Time 7:15 AM EDT 7:09 PM EDT
Civil Twilight 6:51 AM EDT 7:32 PM EDT
Nautical Twilight 6:24 AM EDT 8:00 PM EDT
Astronomical Twilight 5:57 AM EDT 8:27 PM EDT
Moon 3:09 AM EDT (9/30) 4:22 PM EDT (9/30)
Length of Visible Light 12h 41m
Length of Day
11h 54m
Waning Crescent, 19% of the Moon is Illuminated
Sep 30
Waning Crescent
Oct 4
New
Oct 11
First Quarter
Oct 18
Full
Oct 26
Last Quarter

Hourly Weather History & Observations

Time (EDT) Temp. Heat Index Dew Point Humidity Pressure Visibility Wind Dir Wind Speed Gust Speed Precip Events Conditions
12:53 AM 72.0 °F - 69.1 °F 91% 29.95 in 10.0 mi Calm Calm - N/A   Clear
1:53 AM 72.0 °F - 70.0 °F 93% 29.94 in 10.0 mi West 3.5 mph - N/A   Clear
2:53 AM 72.0 °F - 70.0 °F 93% 29.94 in 10.0 mi SSW 3.5 mph - N/A   Clear
3:53 AM 71.1 °F - 69.1 °F 93% 29.93 in 10.0 mi West 4.6 mph - N/A   Clear
4:53 AM 70.0 °F - 68.0 °F 93% 29.93 in 10.0 mi Calm Calm - N/A   Clear
5:53 AM 70.0 °F - 69.1 °F 97% 29.94 in 10.0 mi Calm Calm - N/A   Clear
6:53 AM 68.0 °F - 66.9 °F 96% 29.96 in 10.0 mi WNW 3.5 mph - N/A   Clear
7:53 AM 71.1 °F - 70.0 °F 96% 29.98 in 10.0 mi Calm Calm - N/A   Clear
8:53 AM 75.9 °F - 72.0 °F 87% 29.99 in 10.0 mi Calm Calm - N/A   Clear
9:53 AM 81.0 °F 84.4 °F 70.0 °F 69% 30.00 in 10.0 mi West 3.5 mph - N/A   Clear
10:53 AM 82.9 °F 86.5 °F 69.1 °F 63% 30.00 in 10.0 mi Variable 3.5 mph - N/A   Scattered Clouds
11:53 AM 82.9 °F 86.5 °F 69.1 °F 63% 29.99 in 10.0 mi Calm Calm - N/A   Scattered Clouds
12:53 PM 84.9 °F 88.8 °F 69.1 °F 59% 29.98 in 10.0 mi East 8.1 mph - N/A   Scattered Clouds
1:53 PM 82.9 °F 86.5 °F 69.1 °F 63% 29.96 in 10.0 mi ENE 8.1 mph - N/A   Mostly Cloudy
2:53 PM 86.0 °F 90.1 °F 69.1 °F 57% 29.94 in 10.0 mi ENE 8.1 mph - N/A   Clear
3:53 PM 86.0 °F 89.4 °F 68.0 °F 55% 29.94 in 10.0 mi East 11.5 mph - N/A   Scattered Clouds
4:53 PM 84.0 °F 87.0 °F 68.0 °F 58% 29.94 in 10.0 mi East 9.2 mph - N/A   Scattered Clouds
5:53 PM 82.0 °F 84.9 °F 68.0 °F 62% 29.95 in 10.0 mi NE 11.5 mph - N/A   Scattered Clouds
6:53 PM 80.1 °F 82.7 °F 68.0 °F 67% 29.96 in 10.0 mi ENE 9.2 mph - N/A   Mostly Cloudy
7:53 PM 80.1 °F 82.7 °F 68.0 °F 67% 29.97 in 10.0 mi East 8.1 mph - N/A   Partly Cloudy
8:53 PM 80.1 °F 82.3 °F 66.9 °F 64% 29.99 in 10.0 mi East 9.2 mph - N/A   Partly Cloudy
9:53 PM 80.1 °F 83.6 °F 71.1 °F 74% 30.01 in 10.0 mi ENE 9.2 mph - N/A   Scattered Clouds
10:53 PM 80.1 °F 83.6 °F 71.1 °F 74% 30.03 in 10.0 mi East 11.5 mph - N/A   Mostly Cloudy
11:53 PM 80.1 °F 83.2 °F 70.0 °F 71% 30.02 in 10.0 mi East 9.2 mph - N/A   Scattered Clouds